This is the latest recevied weather packets stored in our database for station/object CA2RRL-10. If no packets are shown the sender has not sent any weather packets the latest 10 day(s).
| Time | Temp. | Humidity | Pressure | Rain* | Wind** | Luminosity | Snow |
|---|---|---|---|---|---|---|---|
| 1777474074 | 17.22° C | 43% | 1030.2 hPa | - | - | - | - |
| 1777473174 | 16.67° C | 45% | 1030.2 hPa | - | - | - | - |
| 1777472274 | 15.56° C | 48% | 1030.4 hPa | - | - | - | - |
| 1777471374 | 15° C | 50% | 1030.5 hPa | - | - | - | - |
| 1777470473 | 13.89° C | 52% | 1030.5 hPa | - | - | - | - |
| 1777469573 | 13.33° C | 53% | 1030.6 hPa | - | - | - | - |
| 1777468673 | 12.78° C | 55% | 1030.6 hPa | - | - | - | - |
| 1777467773 | 11.67° C | 57% | 1030.6 hPa | - | - | - | - |
| 1777466873 | 11.67° C | 56% | 1030.7 hPa | - | - | - | - |
| 1777465973 | 11.11° C | 56% | 1030.6 hPa | - | - | - | - |
| 1777465073 | 11.11° C | 56% | 1030.5 hPa | - | - | - | - |
| 1777464173 | 10.56° C | 56% | 1030.6 hPa | - | - | - | - |
| 1777463273 | 10.56° C | 56% | 1030.5 hPa | - | - | - | - |
| 1777462373 | 10.56° C | 55% | 1030.5 hPa | - | - | - | - |
| 1777461473 | 10.56° C | 55% | 1030.5 hPa | - | - | - | - |
| 1777460573 | 10.56° C | 55% | 1030.6 hPa | - | - | - | - |
| 1777459672 | 10.56° C | 54% | 1030.7 hPa | - | - | - | - |
| 1777458773 | 10.56° C | 55% | 1030.8 hPa | - | - | - | - |
| 1777457872 | 11.11° C | 54% | 1030.8 hPa | - | - | - | - |
| 1777456972 | 11.11° C | 54% | 1030.8 hPa | - | - | - | - |
| 1777456072 | 11.11° C | 54% | 1030.7 hPa | - | - | - | - |
| 1777455172 | 11.11° C | 54% | 1030.9 hPa | - | - | - | - |
| 1777454272 | 11.11° C | 54% | 1030.9 hPa | - | - | - | - |
| 1777453372 | 11.67° C | 53% | 1031 hPa | - | - | - | - |
| 1777452472 | 11.67° C | 53% | 1031.1 hPa | - | - | - | - |
* Rain since midnight (hover to see other rain measurements)
** Current wind speed in m/s (hover to see current wind gust speed)